EW5239 Weather Reports


Display with metric or nautical units.
time (UTC)temp
F
wind
direction
speed
MPH
gust
MPH
rain 1hr
in
rain 24hr
in
rain mn
in
humidity
%
barometer
mb
20200404093004 48 303 7.0 11.0 0.00 0.00 0.00 44 1026.3
20200404092503 48 307 7.0 11.0 0.00 0.00 0.00 44 1026.2
20200404091004 49 282 6.0 9.0 0.00 0.00 0.00 44 1026.1
20200404090503 49 300 6.0 9.0 0.00 0.00 0.00 45 1026.1
20200404090006 48 285 6.0 8.0 0.00 0.00 0.00 47 1026.0
20200404085504 48 273 6.0 8.0 0.00 0.00 0.00 49 1026.0
20200404085003 47 287 7.0 11.0 0.00 0.00 0.00 48 1025.9
20200404084503 47 301 8.0 11.0 0.00 0.00 0.00 48 1025.9
20200404084004 47 308 8.0 11.0 0.00 0.00 0.00 49 1025.9
20200404083503 46 311 8.0 11.0 0.00 0.00 0.00 51 1025.9
20200404083004 46 310 6.0 11.0 0.00 0.00 0.00 51 1025.8
20200404082503 45 301 3.0 6.0 0.00 0.00 0.00 53 1025.9
20200404082004 45 271 3.0 6.0 0.00 0.00 0.00 54 1025.8
20200404081503 44 207 2.0 3.0 0.00 0.00 0.00 55 1025.6
20200404081003 44 189 3.0 5.0 0.00 0.00 0.00 55 1025.7
20200404080504 44 202 3.0 5.0 0.00 0.00 0.00 55 1025.7
20200404080006 43 178 2.0 4.0 0.00 0.00 0.00 55 1025.5
20200404075505 43 134 3.0 4.0 0.00 0.00 0.00 56 1025.4
20200404075003 43 121 3.0 4.0 0.00 0.00 0.00 57 1025.3
20200404074504 43 103 3.0 4.0 0.00 0.00 0.00 59 1025.3
20200404074003 43 87 2.0 4.0 0.00 0.00 0.00 61 1025.4
20200404073504 42 315 2.0 3.0 0.00 0.00 0.00 62 1025.3
20200404073003 42 336 2.0 3.0 0.00 0.00 0.00 63 1025.2
20200404072504 42 52 2.0 4.0 0.00 0.00 0.00 64 1025.2
20200404072003 41 44 2.0 4.0 0.00 0.00 0.00 65 1025.1
20200404071504 41 305 1.0 4.0 0.00 0.00 0.00 66 1025.1
20200404071003 40 280 2.0 4.0 0.00 0.00 0.00 67 1025.1
20200404070503 40 277 2.0 2.0 0.00 0.00 0.00 67 1025.0
20200404070007 40 322 2.0 3.0 0.00 0.00 0.00 67 1024.8
20200404065503 39 349 2.0 3.0 0.00 0.00 0.00 68 1024.7
20200404065004 39 354 2.0 3.0 0.00 0.00 0.00 70 1024.7
20200404064503 38 311 2.0 4.0 0.00 0.00 0.00 71 1024.6
20200404064004 38 299 3.0 4.0 0.00 0.00 0.00 72 1024.6
20200404063503 37 307 2.0 3.0 0.00 0.00 0.00 68 1024.5
20200404063003 36 277 2.0 2.0 0.00 0.00 0.00 68 1024.5
20200404062504 35 276 2.0 3.0 0.00 0.00 0.00 68 1024.6
20200404062003 35 281 2.0 3.0 0.00 0.00 0.00 69 1024.5
20200404061504 34 287 2.0 3.0 0.00 0.00 0.00 68 1024.5
20200404061004 34 287 1.0 3.0 0.00 0.00 0.00 68 1024.5
20200404060504 33 289 1.0 2.0 0.00 0.00 0.00 68 1024.4
20200404060006 33 309 0.0 1.0 0.00 0.00 0.00 68 1024.3
20200404055504 33 278 1.0 2.0 0.00 0.00 0.00 68 1024.2
20200404055003 32 245 1.0 2.0 0.00 0.00 0.00 68 1024.1
20200404054504 32 239 2.0 2.0 0.00 0.00 0.00 68 1024.0
20200404053504 31 230 2.0 2.0 0.00 0.00 0.00 69 1023.7
20200404053003 31 203 2.0 2.0 0.00 0.00 0.00 69 1023.7
20200404052504 30 207 2.0 2.0 0.00 0.00 0.00 69 1023.6
20200404052003 30 208 2.0 2.0 0.00 0.00 0.00 70 1023.6
20200404051503 30 190 1.0 2.0 0.00 0.00 0.00 70 1023.5
20200404051006 29 182 1.0 2.0 0.00 0.00 0.00 69 1023.4
20200404050503 29 175 1.0 1.0 0.00 0.00 0.00 69 1023.4
20200404050007 29 195 1.0 2.0 0.00 0.00 0.00 69 1023.3
20200404045503 29 193 2.0 2.0 0.00 0.00 0.00 69 1023.1
20200404045003 29 189 2.0 2.0 0.00 0.00 0.00 68 1023.1
20200404044503 29 183 1.0 2.0 0.00 0.00 0.00 68 1023.1
20200404044005 29 181 1.0 2.0 0.00 0.00 0.00 68 1022.9
20200404043503 29 181 1.0 2.0 0.00 0.00 0.00 68 1022.9
20200404043004 29 183 1.0 2.0 0.00 0.00 0.00 67 1022.7
20200404042504 29 202 1.0 2.0 0.00 0.00 0.00 67 1022.8
20200404042004 29 224 1.0 2.0 0.00 0.00 0.00 67 1022.6
20200404041504 29 209 1.0 2.0 0.00 0.00 0.00 67 1022.5
20200404041003 29 188 2.0 2.0 0.00 0.00 0.00 67 1022.6
20200404040503 30 191 2.0 2.0 0.00 0.00 0.00 67 1022.4
20200404040006 30 218 2.0 2.0 0.00 0.00 0.00 67 1022.4
20200404035504 30 234 2.0 2.0 0.00 0.00 0.00 67 1022.3
20200404035003 30 218 2.0 2.0 0.00 0.00 0.00 67 1022.3
20200404034503 30 214 2.0 2.0 0.00 0.00 0.00 66 1022.2
20200404034003 30 224 2.0 3.0 0.00 0.00 0.00 66 1022.1
20200404033503 30 230 2.0 3.0 0.00 0.00 0.00 66 1022.0
20200404033003 30 225 2.0 3.0 0.00 0.00 0.00 65 1022.1
20200404032503 31 225 1.0 2.0 0.00 0.00 0.00 64 1022.0
20200404032004 31 208 1.0 2.0 0.00 0.00 0.00 64 1021.8
20200404031503 31 178 1.0 2.0 0.00 0.00 0.00 64 1021.8
20200404031003 31 170 2.0 2.0 0.00 0.00 0.00 64 1021.7
20200404030503 31 187 2.0 2.0 0.00 0.00 0.00 64 1021.7
20200404030006 32 188 1.0 2.0 0.00 0.00 0.00 64 1021.7
20200404025503 32 194 1.0 2.0 0.00 0.00 0.00 64 1021.5
20200404025003 32 207 1.0 2.0 0.00 0.00 0.00 63 1021.6
20200404024503 32 209 1.0 2.0 0.00 0.00 0.00 63 1021.5
20200404024003 32 221 1.0 2.0 0.00 0.00 0.00 63 1021.5
20200404023004 32 216 1.0 2.0 0.00 0.00 0.00 63 1021.2
20200404022503 32 213 1.0 2.0 0.00 0.00 0.00 63 1021.3
20200404022004 32 200 1.0 2.0 0.00 0.00 0.00 63 1021.2
20200404021503 32 213 1.0 2.0 0.00 0.00 0.00 62 1021.2
20200404021003 32 223 1.0 2.0 0.00 0.00 0.00 62 1021.3
20200404020503 32 225 2.0 3.0 0.00 0.00 0.00 63 1021.1
20200404020007 32 225 2.0 3.0 0.00 0.00 0.00 63 1021.0
20200404015505 32 225 1.0 2.0 0.00 0.00 0.00 64 1021.0
20200404015004 31 225 1.0 2.0 0.00 0.00 0.00 63 1020.9
20200404014503 31 225 2.0 2.0 0.00 0.00 0.00 63 1020.8
20200404014003 31 222 2.0 2.0 0.00 0.00 0.00 63 1020.6
20200404013504 31 211 2.0 2.0 0.00 0.00 0.00 63 1020.7
20200404013003 31 200 1.0 2.0 0.00 0.00 0.00 62 1020.6
20200404012503 31 195 1.0 2.0 0.00 0.00 0.00 62 1020.7
20200404012003 31 212 2.0 2.0 0.00 0.00 0.00 62 1020.7
20200404011004 31 214 2.0 3.0 0.00 0.00 0.00 62 1020.5
20200404010503 31 226 2.0 3.0 0.00 0.00 0.00 61 1020.5
20200404010006 31 229 2.0 2.0 0.00 0.00 0.00 61 1020.4
20200404005503 31 225 2.0 2.0 0.00 0.00 0.00 61 1020.3
20200404005003 31 214 2.0 2.0 0.00 0.00 0.00 60 1020.4
20200404004537 32 194 2.0 2.0 0.00 0.00 0.00 61 1020.3
20200404004003 32 183 2.0 2.0 0.00 0.00 0.00 60 1020.4
20200404003503 32 204 1.0 2.0 0.00 0.00 0.00 60 1020.3
20200404003004 32 219 2.0 2.0 0.00 0.00 0.00 60 1020.3
20200404002503 32 222 2.0 2.0 0.00 0.00 0.00 60 1020.3
20200404002003 32 223 2.0 2.0 0.00 0.00 0.00 60 1020.3
20200404001503 32 223 2.0 2.0 0.00 0.00 0.00 59 1020.1
20200404001010 32 225 2.0 2.0 0.00 0.00 0.00 59 1020.1
20200404000503 32 225 2.0 2.0 0.00 0.00 0.00 59 1020.1
20200404000007 32 230 2.0 2.0 0.00 0.00 0.00 59 1020.0
20200403235503 32 230 2.0 2.0 0.00 0.00 0.00 59 1020.0
20200403235002 32 225 2.0 2.0 0.00 0.00 0.00 59 1019.9
20200403234503 32 225 2.0 2.0 0.00 0.00 0.00 59 1019.8
20200403234003 32 222 2.0 2.0 0.00 0.00 0.00 59 1019.8
20200403233503 32 214 2.0 2.0 0.00 0.00 0.00 59 1019.7
20200403233004 32 214 1.0 2.0 0.00 0.00 0.00 58 1019.6
20200403232503 32 221 1.0 2.0 0.00 0.00 0.00 58 1019.6
20200403232003 32 207 2.0 2.0 0.00 0.00 0.00 58 1019.6
20200403231503 32 207 2.0 2.0 0.00 0.00 0.00 58 1019.5
20200403231003 32 225 1.0 2.0 0.00 0.00 0.00 58 1019.6
20200403230503 32 209 1.0 2.0 0.00 0.00 0.00 58 1019.5
20200403230006 32 210 1.0 2.0 0.00 0.00 0.00 58 1019.5
20200403225503 32 222 2.0 2.0 0.00 0.00 0.00 58 1019.3
20200403225003 32 221 2.0 2.0 0.00 0.00 0.00 58 1019.4
20200403224503 32 219 2.0 2.0 0.00 0.00 0.00 58 1019.3
20200403224003 32 223 2.0 2.0 0.00 0.00 0.00 58 1019.2
20200403223504 32 224 2.0 2.0 0.00 0.00 0.00 58 1019.2
20200403223003 32 224 2.0 2.0 0.00 0.00 0.00 58 1019.2
20200403222503 32 228 2.0 3.0 0.00 0.00 0.00 58 1019.1
20200403222003 32 232 3.0 3.0 0.00 0.00 0.00 58 1019.0
20200403221503 32 224 3.0 3.0 0.00 0.00 0.00 58 1018.9
20200403221003 32 218 2.0 3.0 0.00 0.00 0.00 57 1018.8
20200403220503 32 228 2.0 2.0 0.00 0.00 0.00 57 1018.9
20200403220007 33 227 2.0 2.0 0.00 0.00 0.00 57 1018.8
20200403215519 33 225 2.0 2.0 0.00 0.00 0.00 57 1018.8
20200403215003 33 225 2.0 2.0 0.00 0.00 0.00 57 1018.8
20200403214504 33 227 2.0 2.0 0.00 0.00 0.00 57 1018.6
20200403214003 33 227 2.0 2.0 0.00 0.00 0.00 56 1018.5
20200403213503 33 225 2.0 2.0 0.00 0.00 0.00 56 1018.4
20200403213004 33 222 2.0 2.0 0.00 0.00 0.00 56 1018.5
20200403212504 33 213 2.0 2.0 0.00 0.00 0.00 56 1018.3
20200403212003 33 218 2.0 2.0 0.00 0.00 0.00 56 1018.3
20200403211503 33 225 2.0 2.0 0.00 0.00 0.00 56 1018.2
20200403211003 33 222 2.0 2.0 0.00 0.00 0.00 56 1018.1
20200403210503 33 220 1.0 2.0 0.00 0.00 0.00 56 1018.1
20200403210006 33 224 2.0 2.0 0.00 0.00 0.00 56 1018.0
20200403205503 33 221 2.0 3.0 0.00 0.00 0.00 56 1018.1
20200403205003 34 221 2.0 3.0 0.00 0.00 0.00 55 1017.9
20200403204503 34 225 2.0 2.0 0.00 0.00 0.00 54 1017.8
20200403204003 34 225 2.0 2.0 0.00 0.00 0.00 54 1017.9
20200403203503 34 218 1.0 2.0 0.00 0.00 0.00 53 1017.8
20200403203003 34 218 2.0 2.0 0.00 0.00 0.00 54 1017.8
20200403202503 34 225 2.0 2.0 0.00 0.00 0.00 54 1017.8
20200403202003 35 220 2.0 2.0 0.00 0.00 0.00 53 1017.7
20200403201502 35 219 2.0 2.0 0.00 0.00 0.00 53 1017.6
20200403201003 35 225 2.0 2.0 0.00 0.00 0.00 53 1017.6
20200403200502 35 223 2.0 2.0 0.00 0.00 0.00 53 1017.6
20200403195503 35 225 2.0 2.0 0.00 0.00 0.00 52 1017.5
20200403195003 35 225 1.0 2.0 0.00 0.00 0.00 52 1017.4
20200403194503 35 230 1.0 2.0 0.00 0.00 0.00 52 1017.4
20200403194002 36 229 1.0 2.0 0.00 0.00 0.00 51 1017.4
20200403193503 36 225 1.0 2.0 0.00 0.00 0.00 51 1017.4
20200403193004 36 225 2.0 2.0 0.00 0.00 0.00 51 1017.3
20200403192504 36 225 2.0 3.0 0.00 0.00 0.00 50 1017.3
20200403192003 37 218 3.0 3.0 0.00 0.00 0.00 50 1017.2
20200403191503 37 208 3.0 3.0 0.00 0.00 0.00 49 1017.1
20200403191003 37 212 3.0 3.0 0.00 0.00 0.00 49 1017.0
20200403190502 38 222 2.0 2.0 0.00 0.00 0.00 52 1017.0
20200403190007 38 225 2.0 2.0 0.00 0.00 0.00 51 1016.9
20200403185503 38 225 2.0 2.0 0.00 0.00 0.00 51 1016.9
20200403184503 38 225 2.0 2.0 0.00 0.00 0.00 51 1016.7
20200403184003 39 225 2.0 2.0 0.00 0.00 0.00 50 1016.6
20200403183503 39 239 2.0 2.0 0.00 0.00 0.00 50 1016.5
20200403183003 39 270 2.0 2.0 0.00 0.00 0.00 50 1016.5
20200403182503 39 275 2.0 2.0 0.00 0.00 0.00 49 1016.4
20200403182002 39 267 2.0 2.0 0.00 0.00 0.00 48 1016.4
20200403181503 40 270 2.0 2.0 0.00 0.00 0.00 48 1016.3
20200403181002 40 269 2.0 2.0 0.00 0.00 0.00 47 1016.2
20200403180503 41 282 2.0 3.0 0.00 0.00 0.00 46 1016.1
20200403180006 41 292 3.0 3.0 0.00 0.00 0.00 46 1016.0
20200403175502 41 289 3.0 4.0 0.00 0.00 0.00 45 1015.9
20200403175003 42 286 3.0 4.0 0.00 0.00 0.00 44 1015.8
20200403174502 42 290 3.0 4.0 0.00 0.00 0.00 44 1015.8
20200403174003 42 284 4.0 5.0 0.00 0.00 0.00 44 1015.7
20200403173502 43 276 5.0 6.0 0.00 0.00 0.00 42 1015.6
20200403173005 44 282 5.0 6.0 0.00 0.00 0.00 42 1015.5
20200403172502 44 297 6.0 7.0 0.00 0.00 0.00 42 1015.5
20200403172003 44 300 7.0 11.0 0.00 0.00 0.00 41 1015.3
20200403171503 45 288 6.0 11.0 0.00 0.00 0.00 39 1015.4
20200403171003 45 284 5.0 6.0 0.00 0.00 0.00 38 1015.2
20200403170503 45 286 5.0 8.0 0.00 0.00 0.00 37 1015.2
20200403170005 45 287 6.0 8.0 0.00 0.00 0.00 36 1015.1
20200403165503 46 299 7.0 11.0 0.00 0.00 0.00 35 1015.0
20200403165002 46 302 8.0 11.0 0.00 0.00 0.00 34 1015.0
20200403164503 46 288 8.0 11.0 0.00 0.00 0.00 33 1014.9
20200403164002 47 289 7.0 10.0 0.00 0.00 0.00 34 1014.8
20200403163503 47 310 8.0 11.0 0.00 0.00 0.00 33 1014.7
20200403163003 48 318 11.0 15.0 0.00 0.00 0.00 33 1014.7
20200403162503 48 311 12.0 15.0 0.00 0.00 0.00 33 1014.6
20200403162003 48 301 10.0 15.0 0.00 0.00 0.00 33 1014.6
20200403161503 48 310 12.0 14.0 0.00 0.00 0.00 33 1014.4
20200403161004 48 314 14.0 14.0 0.00 0.00 0.00 33 1014.4
20200403160502 48 311 13.0 15.0 0.00 0.00 0.00 33 1014.3
20200403160006 48 305 10.0 15.0 0.00 0.00 0.00 33 1014.2
20200403155502 48 304 10.0 13.0 0.00 0.00 0.00 33 1014.1
20200403155003 48 305 11.0 14.0 0.00 0.00 0.00 30 1014.1
20200403154502 49 305 11.0 17.0 0.00 0.00 0.00 30 1014.0
20200403154003 49 306 11.0 17.0 0.00 0.00 0.00 30 1014.0
20200403153502 49 310 11.0 15.0 0.00 0.00 0.00 30 1014.0
20200403153003 49 309 11.0 13.0 0.00 0.00 0.00 29 1013.9
20200403152002 49 307 13.0 16.0 0.00 0.00 0.00 30 1013.8
20200403151503 49 317 11.0 16.0 0.00 0.00 0.00 30 1013.6
20200403151002 49 321 10.0 13.0 0.00 0.00 0.00 30 1013.6
20200403150504 49 312 9.0 13.0 0.00 0.00 0.00 30 1013.5
20200403150006 49 305 9.0 13.0 0.00 0.00 0.00 30 1013.4
20200403145503 50 301 11.0 14.0 0.00 0.00 0.00 30 1013.4
20200403145002 50 304 12.0 15.0 0.00 0.00 0.00 29 1013.3
20200403144503 51 308 11.0 15.0 0.00 0.00 0.00 29 1013.4
20200403144002 50 311 11.0 14.0 0.00 0.00 0.00 29 1013.3
20200403143503 51 302 11.0 16.0 0.00 0.00 0.00 29 1013.2
20200403143003 51 301 11.0 16.0 0.00 0.00 0.00 30 1013.1
20200403142502 51 302 12.0 14.0 0.00 0.00 0.00 30 1013.1
20200403142003 51 303 13.0 17.0 0.00 0.00 0.00 29 1013.0
20200403141503 50 308 14.0 23.0 0.00 0.00 0.00 29 1013.0
20200403141003 50 304 15.0 23.0 0.00 0.00 0.00 28 1012.9
20200403140502 51 303 14.0 23.0 0.00 0.00 0.00 28 1013.0
20200403140006 51 297 14.0 18.0 0.00 0.00 0.00 28 1012.9
20200403135502 51 294 13.0 15.0 0.00 0.00 0.00 28 1012.8
20200403135002 52 303 13.0 17.0 0.00 0.00 0.00 27 1012.9
20200403134503 53 298 12.0 17.0 0.00 0.00 0.00 26 1012.7
20200403134003 52 301 12.0 17.0 0.00 0.00 0.00 29 1012.8
20200403133502 52 316 14.0 23.0 0.00 0.00 0.00 27 1012.7
20200403133003 52 313 13.0 23.0 0.00 0.00 0.00 28 1012.5
20200403132502 51 303 12.0 17.0 0.00 0.00 0.00 30 1012.5
20200403132002 50 300 13.0 18.0 0.00 0.00 0.00 30 1012.4
20200403131502 51 309 15.0 21.0 0.00 0.00 0.00 27 1012.5
20200403131002 52 316 17.0 21.0 0.00 0.00 0.00 26 1012.5
20200403130503 52 302 16.0 20.0 0.00 0.00 0.00 27 1012.4
20200403130006 53 303 15.0 20.0 0.00 0.00 0.00 27 1012.4
20200403125504 54 300 13.0 18.0 0.00 0.00 0.00 31 1012.3
20200403125003 53 299 13.0 15.0 0.00 0.00 0.00 32 1012.3
20200403124502 52 316 14.0 17.0 0.00 0.00 0.00 36 1012.2
20200403124002 51 308 15.0 20.0 0.00 0.00 0.00 35 1012.2
20200403123502 51 295 13.0 20.0 0.00 0.00 0.00 39 1012.2
20200403123004 52 288 12.0 19.0 0.00 0.00 0.00 43 1012.1
20200403122503 51 291 13.0 19.0 0.00 0.00 0.00 43 1012.1
20200403122003 51 303 12.0 15.0 0.00 0.00 0.00 43 1012.0
20200403121503 50 304 12.0 15.0 0.00 0.00 0.00 45 1012.0
20200403121002 50 303 11.0 15.0 0.00 0.00 0.00 44 1012.0
20200403120504 50 313 13.0 19.0 0.00 0.00 0.00 45 1011.9
20200403115504 49 300 12.0 17.0 0.00 0.00 0.00 51 1012.0
20200403115002 47 290 10.0 14.0 0.00 0.00 0.00 55 1011.9
20200403114502 46 306 12.0 16.0 0.00 0.00 0.00 54 1012.0
20200403114003 46 316 13.0 16.0 0.00 0.00 0.00 53 1011.9
20200403113502 46 315 13.0 17.0 0.00 0.00 0.00 53 1011.9
20200403113002 46 313 13.0 17.0 0.00 0.00 0.00 53 1011.8
20200403112502 46 314 12.0 15.0 0.00 0.00 0.00 53 1011.9
20200403112003 46 313 13.0 18.0 0.00 0.00 0.00 54 1011.8
20200403111504 46 303 13.0 18.0 0.00 0.00 0.00 53 1011.8
20200403111003 47 301 14.0 20.0 0.00 0.00 0.00 53 1011.7
20200403110504 47 310 15.0 20.0 0.00 0.00 0.00 52 1011.7
20200403110006 46 309 14.0 20.0 0.00 0.00 0.00 54 1011.6
20200403105502 46 306 14.0 20.0 0.00 0.00 0.00 52 1011.5
20200403105003 46 309 16.0 20.0 0.00 0.00 0.00 52 1011.4
20200403104502 46 303 15.0 20.0 0.00 0.00 0.00 52 1011.3
20200403104002 46 303 13.0 15.0 0.00 0.00 0.00 53 1011.3
20200403103003 46 308 13.0 16.0 0.00 0.00 0.00 52 1011.4
20200403102003 47 305 15.0 18.0 0.00 0.00 0.00 52 1011.1
20200403101504 47 299 16.0 20.0 0.00 0.00 0.00 51 1011.1
20200403101002 47 255 15.0 20.0 0.00 0.00 0.00 53 1011.0
20200403100503 48 265 15.0 21.0 0.00 0.00 0.00 54 1011.1
20200403100008 47 302 16.0 21.0 0.00 0.00 0.00 55 1011.0
20200403095503 47 297 14.0 19.0 0.00 0.00 0.00 55 1010.9
20200403095002 48 295 13.0 19.0 0.00 0.00 0.00 55 1011.0
20200403094502 48 300 12.0 16.0 0.00 0.00 0.00 53 1011.1
20200403094002 49 278 12.0 13.0 0.00 0.00 0.00 54 1010.9
20200403093503 48 253 13.0 18.0 0.00 0.00 0.00 56 1010.8